Weather Service Report


678 
ASUS45 KSLC 160410
RWRUT 

UTAH REGIONAL WEATHER ROUNDUP
NATIONAL WEATHER SERVICE SALT LAKE CITY UT
1000 PM MDT SUN JUL 15 2018

UTZ001>011-023>025-160500-

NORTHERN UTAH
  
CITY           SKY/WX    TMP DP  RH WIND       PRES   REMARKS
BRIGHAM CITY   CLEAR     82  48  29 CALM      30.04R                  
HILL AFB       CLEAR     85  43  22 NE3       30.08R                  
LOGAN          CLEAR    N/A N/A N/A E3        30.05R                  
OGDEN          CLEAR     83  42  23 VRB5      30.04R                  
SALT LAKE CITY PTCLDY    84  46  26 W3        30.02R                  
TOOELE VALLEY  CLEAR     75  43  31 S6        30.05R                  
WENDOVER       CLOUDY    91  42  18 N14       30.03R                  
HEBER CITY       N/A     68  50  52 SE5       30.14R                  
WEST JORDAN    CLEAR     81  46  29 W6        30.07R                  

$$

UTZ011>015-024>027-160500-

CENTRAL/NORTHEAST UTAH
  
CITY           SKY/WX    TMP DP  RH WIND       PRES   REMARKS
PROVO AIRPORT  CLEAR     82  54  37 NW7       30.06R                  
MOAB/CANYONLAN CLOUDY    86  51  29 S6        30.04R                  
DELTA          CLEAR     84  43  23 E9        30.06R                  
PRICE          MOCLDY    79  45  29 S3        30.18R                  
ROOSEVELT      MOCLDY    77  54  44 W3        30.13R                  
VERNAL         PTCLDY    81  48  31 NW5       30.12R                  

$$

UTZ013>016-019>022-027-160500-

SOUTHERN UTAH
  
CITY           SKY/WX    TMP DP  RH WIND       PRES   REMARKS
BRYCE CANYON   CLOUDY    64  54  69 SW5       30.35R                  
CEDAR CITY     PTCLDY    78  55  44 SW13      30.16R                  
MILFORD        NOT AVBL                                               
ST GEORGE      PTCLDY    89  60  37 E15       29.96R                  
HANKSVILLE     CLOUDY    82  52  34 W8        30.08R                  
BLANDING         N/A     75  52  43 CALM      30.28R                  

$$

REGIONAL REPORTS     COLORADO/ARIZONA
  
CITY           SKY/WX    TMP DP  RH WIND       PRES   REMARKS
CRAIG, CO      CLEAR     72  47  40 E5        30.23R                  
GRAND JUNCTION PTCLDY    81  53  37 SE16G25   30.11R                  
RIFLE, CO      PTCLDY    78  51  38 SE15      30.18R                  
MONTROSE, CO   PTCLDY    72  52  49 E14G22    30.25R                  
CORTEZ, CO     PTCLDY    70  53  54 CALM      30.20R                  
COLORADO CITY    N/A     73  63  68 CALM      30.18R                  
PAGE, AZ       CLOUDY    83  57  41 SE6       30.09R                  
GRAND CANYON   CLOUDY    63  57  81 CALM      30.30S                  
KINGMAN, AZ    CLOUDY    81  61  50 SE18      30.02S                  
FLAGSTAFF, AZ  CLOUDY    60  56  86 CALM      30.33R                  

$$

REGIONAL REPORTS    NEVADA/IDAHO/WYOMING
  
CITY           SKY/WX    TMP DP  RH WIND       PRES   REMARKS
LAS VEGAS, NV  PTCLDY    99  61  28 SE6       29.86R HX  99           
ELY, NY        CLOUDY    77  45  32 W6        30.21R                  
ELKO, NV       CLOUDY    81  48  31 NE5       30.12F                  
POCATELLO, ID  MOCLDY    79  43  27 SW13      30.07R                  
BURLEY, ID     CLOUDY    79  44  28 SW7       30.03R                  
FORT BRIDGER,    N/A     74  34  23 NW6       30.31R                  
EVANSTON, WY   PTCLDY    74  39  28 N6        30.29R                  
ROCK SPRINGS,  PTCLDY    74  30  19 S5        30.23R                  
KEMMERER, WY   PTCLDY    68  34  28 N14       30.31R                  

$$
  

Return to Home page


Western Regional Climate Center, wrcc@dri.edu